This is the latest recevied weather packets stored in our database for station/object TA3HRJ-12. If no packets are shown the sender has not sent any weather packets the latest 1 day(s).
| Time | Temp. | Humidity | Pressure | Rain* | Wind** | Luminosity | Snow |
|---|---|---|---|---|---|---|---|
| 1778049633 | 17.22° C | 36% | 1028.3 hPa | - | - | - | - |
| 1778048733 | 19.44° C | 33% | 1028.2 hPa | - | - | - | - |
| 1778047833 | 18.89° C | 35% | 1028.2 hPa | - | - | - | - |
| 1778043332 | 15.56° C | 40% | 1027.9 hPa | - | - | - | - |
| 1778042432 | 14.44° C | 44% | 1027.8 hPa | - | - | - | - |
| 1778041532 | 13.33° C | 45% | 1027.7 hPa | - | - | - | - |
| 1778040632 | 13.33° C | 45% | 1027.6 hPa | - | - | - | - |
| 1778039732 | 13.89° C | 45% | 1027.5 hPa | - | - | - | - |
| 1778038832 | 13.33° C | 46% | 1027.3 hPa | - | - | - | - |
| 1778034331 | 13.89° C | 45% | 1026.6 hPa | - | - | - | - |
| 1778033431 | 13.89° C | 45% | 1026.5 hPa | - | - | - | - |
| 1778032531 | 12.78° C | 46% | 1026.5 hPa | - | - | - | - |
| 1778031631 | 13.33° C | 45% | 1026.3 hPa | - | - | - | - |
| 1778030731 | 13.33° C | 46% | 1026.4 hPa | - | - | - | - |
| 1778029831 | 13.89° C | 44% | 1026.4 hPa | - | - | - | - |
| 1778023530 | 14.44° C | 43% | 1026.3 hPa | - | - | - | - |
| 1778022630 | 13.89° C | 44% | 1026.2 hPa | - | - | - | - |
| 1778021730 | 14.44° C | 43% | 1026.2 hPa | - | - | - | - |
| 1778020830 | 13.89° C | 43% | 1026.3 hPa | - | - | - | - |
| 1778019930 | 15° C | 41% | 1026.3 hPa | - | - | - | - |
* Rain since midnight (hover to see other rain measurements)
** Current wind speed in m/s (hover to see current wind gust speed)